Location: Cedar Ridge
(38.0658°N, 120.2769°W)
Time: 23:07:49
(UTC+00:00)

Tiangong - Pass Details

Date: 10 September 2024
Orbit: 372 x 377 km, 41.5° (Epoch: 12 October)

Event Time Altitude Azimuth Distance (km) Brightness Sun altitude
Exits shadow 13:04:18 10° 257° (WSW) 1,407 0.0 -7.6°
Maximum altitude 13:06:27 17° 214° (SW) 1,065 -0.3 -7.2°
Drops below altitude 10° 13:08:39 10° 171° (S) 1,413 0.7 -6.8°
Sets 13:11:15 0° 150° (SSE) 2,295 2.1 -6.3°
